sat.trackr.live / text

‹ back to catalog

STARLINK-5546

NORAD 55632 · 2023-021E

PAYLOAD ACTIVE UNKNOWN

§ Identity

Operator
Country
US
Launch date
2023-02-17
Launch site
AFWTR
Launch vehicle
Mass (kg)
RCS (m²)

Purposes: comms

External: N2YO · Heavens-Above · Gunter

§ Orbital elements

Epoch: 2026-05-25T00:49:12.337248Z

Period
96.11 min
Inclination
69.9997°
Eccentricity
0.0002716
Mean motion
14.98336243 rev/d
Perigee alt
570.1 km
Apogee alt
573.9 km
Semi-major
6,950.2 km
B*
-2.5486e-5
RAAN
11.9742°
Arg perigee
268.0931°
Mean anomaly
91.9917°
Rev number
17,973

§ Raw data

STARLINK-55461 55632U 23021E   26145.03417057 -.00000397  00000+0 -25486-4 0  99932 55632  69.9997  11.9742 0002716 268.0931  91.9917 14.98336243179737

JSON: /api/v1/satellites/55632 · /tle

For live sub-satellite position, see the globe view (requires WebGL).

§ Visibility from observer

Set your observer location to see the next 7 days of passes ≥ 10°. The values pass through the URL so the page stays shareable.

No JS? Fill the form by hand. The geolocation button needs JavaScript.